Location: Beemte
(52.2555°N, 5.9895°E)
Time: 15:56:44
(UTC+00:00)

Cosmos 1707 - Pass Details

Date: 15 May 2026
Orbit: 332 x 334 km, 82.5° (Epoch: 10 June)

Event Time Altitude Azimuth Distance (km) Brightness Sun altitude
Exits shadow 22:23:07 36° 233° (SW) 598 2.8 -17.1°
Maximum altitude 22:23:57 49° 284° (WNW) 474 2.6 -17.2°
Drops below altitude 10° 22:26:48 10° 1° (N) 1,356 6.0 -17.3°
Sets 22:28:49 0° 7° (N) 2,208 7.2 -17.4°
